Flag for U.S.A. Weather past 2 weeks in Owensboro, Kentucky, U.S.A.

Now
35 °F

Clear.


Feels Like: 35 °F
Forecast: 28 / 43 °F
Wind: No wind

Location: Owensboro / Daviess

Current Time: Mar 27, 2015 at 12:39:29 AM

Latest Report: Mar 26, 2015 at 11:56 PM


Visibility: 10 mi

Pressure: 30.03 "Hg

Humidity: 92%

Dew point: 33 °F

Location of OwensboroLocation

Historic Weather in Owensboro — Graph

°F

Owensboro temperature yesterday

Maximum temperature yesterday: 56 °F (at 12:56 AM)
Minimum temperature yesterday: 36 °F (at 10:56 PM)
Average temperature yesterday: 45 °F

Past Weeks' High & Low Weather Summary

 TemperatureHumidityPressure
High76 °F (Mar 16, 2:56 PM)100% (Mar 12, 1:01 AM)30.41 "Hg (Mar 12, 1:01 AM)
Low36 °F (Mar 26, 10:56 PM)23% (Mar 22, 4:56 PM)29.84 "Hg (Mar 26, 4:56 AM)
Average52 °F70%30.12 "Hg
* Reported Mar 11 10:56 PM — Mar 26 10:56 PM, Owensboro, Weather by CustomWeather, © 2015

Note: Actual official high and low records may vary slightly from our data, if they occured in-between our weather recording intervals... More about our weather records

Advertising

Owensboro weather history for previous 24 hours

 ConditionsComfort  
Time TempWeatherWind HumidityBarometerVisibility
10:56 PM
Thu, Mar 26
36 °FClear.No wind92%30.04 "Hg10 mi
9:56 PM38 °FPassing clouds.No wind89%30.05 "Hg10 mi
8:56 PM40 °FPassing clouds.7 mph82%30.04 "Hg10 mi
7:56 PM42 °FClear.6 mph76%30.01 "Hg10 mi
6:56 PM43 °FBroken clouds.8 mph73%30.01 "Hg10 mi
5:56 PM44 °FBroken clouds.10 mph74%29.99 "Hg10 mi
4:56 PM44 °FBroken clouds.12 mph76%29.97 "Hg10 mi
3:56 PM43 °FPartly sunny.14 mph82%29.98 "Hg10 mi
2:56 PM42 °FLight rain. Fog.14 mph89%30.00 "Hg6 mi
1:56 PM43 °FRain. Fog.14 mph89%30.00 "Hg3 mi
12:56 PM44 °FLight rain. Mostly cloudy.12 mph90%29.96 "Hg8 mi
11:56 AM44 °FLight rain. Fog.9 mph93%29.96 "Hg4 mi
10:56 AM44 °FLight rain. Fog.12 mph93%29.96 "Hg6 mi
9:56 AM45 °FLight rain. Overcast.9 mph93%29.96 "Hg7 mi
8:56 AM46 °FLight rain. Fog.12 mph97%29.94 "Hg4 mi
7:56 AM48 °FRain. Fog.12 mph93%29.93 "Hg4 mi
6:56 AM49 °FLight rain. Overcast.10 mph93%29.89 "Hg7 mi
5:56 AM48 °FLight rain. Fog.8 mph97%29.85 "Hg5 mi
4:56 AM48 °FLight rain. Partly cloudy.10 mph97%29.84 "Hg10 mi
4:03 AM48 °FHeavy rain. Fog.10 mph100%29.88 "Hg2 mi
3:56 AM50 °FHeavy rain. Fog.15 mph92%29.88 "Hg2 mi
2:56 AM51 °FHeavy rain. Fog.13 mph93%29.87 "Hg3 mi
1:56 AM52 °FLight rain. Fog.13 mph89%29.89 "Hg6 mi
12:56 AM56 °FPartly cloudy.14 mph81%29.88 "Hg10 mi
Weather by CustomWeather, © 2015

See weather overviewHow to use our weather pages